STARLINK-4382, 53194

Orbit data source: Space-Track

STARLINK-4382, 53194 is a payload satellite owned by SpaceX/Seattle (US) in SSO that was launched on Fri, 22 Jul 2022 UTC via an FALCON 9 launch vehicle from the Air Force Western Test Range (AFWTR). Payload-class satellites include a variety of spacecraft equipped with specific instruments for various scientific and technological missions. These include communications satellites like Starlink; space stations such as the ISS; scientific satellites like the Hubble; Earth observation satellites from companies like Planet Labs, Umbra, and HawkEye 360; GPS; miniature CubeSats for education and research; and military/defense satellites.

Loading next visibility...
Identifier
53194, 2022-084F
Orbit
SSO
Country
Flag of USUS
Related business
Manufacturer
SpaceX/Seattle
Mission
Operational Commercial Communications
Bus & Motor
STARLINK, Unknown motor
Mass
297 kg wet, ~275 kg dry
Launch date (UTC)
2022-07-22 (4 years ago)
Launch vehicle
FALCON 9
Launch site
Air Force Western Test Range (AFWTR)
Object type
Payload
Rocket body
Debris
Shape & HBR
Box + 1 Pan, 10.1 m
Radar Cross Section
13.562 m², Large (>1 m²)

Expand to show TLE details & history
Last TLE update: 3 days ago

TLE from 3 days ago
0 STARLINK-4382
1 53194U 22084F   26170.69824868  .00000161  00000-0  15083-4 0  9994
2 53194  97.3373 230.6603 0001775  88.8580 271.2851 15.05655651214724
Epoch: 2026-06-19T16:45Z
TLE epoch observation values (Epoch: 2026-06-19T16:45:28.685Z)
Latitude
-0.00004°
Longitude
71.36729°
Altitude
552.539 km
Speed
7.586 km/s
True Right ascension
15h 22m 38s
True Declination
0° 00' 00"
Sunlit
Object was in full shadow at epoch
Visualization orbit readout
Latitude
Unknown
Longitude
Unknown
Altitude
Unknown
Speed
Unknown
Apparent Right ascension
Unknown
Apparent Declination
Unknown
Sunlit
N/A
Visualization observer readout
Local Sidereal Time
21:30:33
Azimuth
Unknown
Elevation
Unknown
Doppler factor
Unknown
Orbital elements
Apogee altitude
547.705 km
Perigee altitude
545.247 km
Semi-major axis
6,924.613 km
Eccentricity
0.00018
Inclination
97.3373°
RAAN
230.6603°
Arg. of periapsis
88.858°
True anomaly
271.26477°
Mean anomaly
271.2851°
Eccentric anomaly
271.27493°
Mean motion
3.7666 °/min
Orbital period
95.58 mins
BSTAR
0.000015083
Loading maneuver chart data...
Computing Atmospheric mass density...
Loading historical data...
Loading historical data...
Loading historical data...
Loading historical data...
Loading historical data...
Loading historical data...
Loading historical data...

Documentation

Showing up to 5 results
|